User: anonymous   Login
Location: Unspecified
(0.0000°N, 0.0000°E)
Time: 20:48:58
(UTC+00:00)
Language:

Kosmos-1655 - Orbit

View from above orbital plane
View from above orbital plane
View from above satellite
View from above satellite

Ground track
Ground track

The orbit data is extracted from the following two-line orbital elements,

1 15751U 85041A   18140.93240707 +.00000039 +00000-0 +26272-4 0  9998
2 15751 082.9502 077.4771 0026897 003.2852 062.4886 13.71698633650352
Epoch (UTC): 20 May 2018 22:22:39
Eccentricity: 0.0026897
inclination: 82.9502°
perigee height: 973 km
apogee height: 1013 km
right ascension of ascending node: 77.4771°
argument of perigee: 3.2852°
revolutions per day: 13.71698633
mean anomaly at epoch: 62.4886°
orbit number at epoch: 65035

The dashed part of the orbit path shows where the satellite is in the earth's shadow,  

DLR